Year,Month,Day,Hour,Minute,Value (Times are PST for temperature in C)
2014,02,19,00,00,3.30
2014,02,19,00,01,3.30
2014,02,19,00,02,3.30
2014,02,19,00,03,3.30
2014,02,19,00,04,3.30
2014,02,19,00,05,3.30
2014,02,19,00,06,3.30
2014,02,19,00,07,3.40
2014,02,19,00,08,3.40
2014,02,19,00,09,3.40
2014,02,19,00,10,3.50
2014,02,19,00,11,3.50
2014,02,19,00,12,3.50
2014,02,19,00,13,3.60
2014,02,19,00,14,3.60
2014,02,19,00,15,3.60
2014,02,19,00,16,3.60
2014,02,19,00,17,3.60
2014,02,19,00,18,3.60
2014,02,19,00,19,3.60
2014,02,19,00,20,3.60
2014,02,19,00,21,3.60
2014,02,19,00,22,3.60
2014,02,19,00,23,3.60
2014,02,19,00,24,3.50
2014,02,19,00,25,3.50
2014,02,19,00,26,3.50
2014,02,19,00,27,3.50
2014,02,19,00,28,3.50
2014,02,19,00,29,3.40
2014,02,19,00,30,3.40
2014,02,19,00,31,3.40
2014,02,19,00,32,3.40
2014,02,19,00,33,3.40
2014,02,19,00,34,3.40
2014,02,19,00,35,3.40
2014,02,19,00,36,3.40
2014,02,19,00,37,3.40
2014,02,19,00,38,3.40
2014,02,19,00,39,3.40
2014,02,19,00,40,3.40
2014,02,19,00,41,3.40
2014,02,19,00,42,3.40
2014,02,19,00,43,3.40
2014,02,19,00,44,3.40
2014,02,19,00,45,3.40
2014,02,19,00,46,3.40
2014,02,19,00,47,3.40
2014,02,19,00,48,3.40
2014,02,19,00,49,3.40
2014,02,19,00,50,3.40
2014,02,19,00,51,3.30
2014,02,19,00,52,3.30
2014,02,19,00,53,3.30
2014,02,19,00,54,3.20
2014,02,19,00,55,3.20
2014,02,19,00,56,3.20
2014,02,19,00,57,3.20
2014,02,19,00,58,3.10
2014,02,19,00,59,3.10
2014,02,19,01,00,3.10
2014,02,19,01,01,3.00
2014,02,19,01,02,3.00
2014,02,19,01,03,2.90
2014,02,19,01,04,2.90
2014,02,19,01,05,2.90
2014,02,19,01,06,2.90
2014,02,19,01,07,2.80
2014,02,19,01,08,2.80
2014,02,19,01,09,2.80
2014,02,19,01,10,2.80
2014,02,19,01,11,2.80
2014,02,19,01,12,2.90
2014,02,19,01,13,2.90
2014,02,19,01,14,2.90
2014,02,19,01,15,2.90
2014,02,19,01,16,2.90
2014,02,19,01,17,2.90
2014,02,19,01,18,3.00
2014,02,19,01,19,3.00
2014,02,19,01,20,3.00
2014,02,19,01,21,3.00
2014,02,19,01,22,3.00
2014,02,19,01,23,3.00
2014,02,19,01,24,3.00
2014,02,19,01,25,3.00
2014,02,19,01,26,3.00
2014,02,19,01,27,3.00
2014,02,19,01,28,3.00
2014,02,19,01,29,3.00
2014,02,19,01,30,3.00
2014,02,19,01,31,3.00
2014,02,19,01,32,3.00
2014,02,19,01,33,3.00
2014,02,19,01,34,2.90
2014,02,19,01,35,2.90
2014,02,19,01,36,2.90
2014,02,19,01,37,2.90
2014,02,19,01,38,2.90
2014,02,19,01,39,2.80
2014,02,19,01,40,2.80
2014,02,19,01,41,2.80
2014,02,19,01,42,2.80
2014,02,19,01,43,2.80
2014,02,19,01,44,2.80
2014,02,19,01,45,2.80
2014,02,19,01,46,2.80
2014,02,19,01,47,2.80
2014,02,19,01,48,2.70
2014,02,19,01,49,2.70
2014,02,19,01,50,2.70
2014,02,19,01,51,2.70
2014,02,19,01,52,2.70
2014,02,19,01,53,2.60
2014,02,19,01,54,2.60
2014,02,19,01,55,2.60
2014,02,19,01,56,2.60
2014,02,19,01,57,2.60
2014,02,19,01,58,2.50
2014,02,19,01,59,2.50
2014,02,19,02,00,2.50
2014,02,19,02,01,2.50
2014,02,19,02,02,2.50
2014,02,19,02,03,2.50
2014,02,19,02,04,2.50
2014,02,19,02,05,2.40
2014,02,19,02,06,2.40
2014,02,19,02,07,2.40
2014,02,19,02,08,2.40
2014,02,19,02,09,2.40
2014,02,19,02,10,2.30
2014,02,19,02,11,2.30
2014,02,19,02,12,2.30
2014,02,19,02,13,2.20
2014,02,19,02,14,2.20
2014,02,19,02,15,2.20
2014,02,19,02,16,2.20
2014,02,19,02,17,2.20
2014,02,19,02,18,2.20
2014,02,19,02,19,2.20
2014,02,19,02,20,2.30
2014,02,19,02,21,2.30
2014,02,19,02,22,2.30
2014,02,19,02,23,2.40
2014,02,19,02,24,2.40
2014,02,19,02,25,2.40
2014,02,19,02,26,2.40
2014,02,19,02,27,2.40
2014,02,19,02,28,2.40
2014,02,19,02,29,2.40
2014,02,19,02,30,2.40
2014,02,19,02,31,2.40
2014,02,19,02,32,2.40
2014,02,19,02,33,2.40
2014,02,19,02,34,2.40
2014,02,19,02,35,2.40
2014,02,19,02,36,2.40
2014,02,19,02,37,2.40
2014,02,19,02,38,2.40
2014,02,19,02,39,2.40
2014,02,19,02,40,2.40
2014,02,19,02,41,2.30
2014,02,19,02,42,2.30
2014,02,19,02,43,2.30
2014,02,19,02,44,2.40
2014,02,19,02,45,2.40
2014,02,19,02,46,2.40
2014,02,19,02,47,2.40
2014,02,19,02,48,2.40
2014,02,19,02,49,2.30
2014,02,19,02,50,2.40
2014,02,19,02,51,2.40
2014,02,19,02,52,2.30
2014,02,19,02,53,2.30
2014,02,19,02,54,2.30
2014,02,19,02,55,2.30
2014,02,19,02,56,2.30
2014,02,19,02,57,2.30
2014,02,19,02,58,2.30
2014,02,19,02,59,2.30
2014,02,19,03,00,2.30
2014,02,19,03,01,2.30
2014,02,19,03,02,2.30
2014,02,19,03,03,2.30
2014,02,19,03,04,2.30
2014,02,19,03,05,2.30
2014,02,19,03,06,2.30
2014,02,19,03,07,2.30
2014,02,19,03,08,2.30
2014,02,19,03,09,2.30
2014,02,19,03,10,2.30
2014,02,19,03,11,2.30
2014,02,19,03,12,2.30
2014,02,19,03,13,2.30
2014,02,19,03,14,2.30
2014,02,19,03,15,2.30
2014,02,19,03,16,2.30
2014,02,19,03,17,2.30
2014,02,19,03,18,2.30
2014,02,19,03,19,2.20
2014,02,19,03,20,2.20
2014,02,19,03,21,2.20
2014,02,19,03,22,2.20
2014,02,19,03,23,2.20
2014,02,19,03,24,2.20
2014,02,19,03,25,2.20
2014,02,19,03,26,2.20
2014,02,19,03,27,2.20
2014,02,19,03,28,2.20
2014,02,19,03,29,2.20
2014,02,19,03,30,2.20
2014,02,19,03,31,2.20
2014,02,19,03,32,2.20
2014,02,19,03,33,2.20
2014,02,19,03,34,2.20
2014,02,19,03,35,2.20
2014,02,19,03,36,2.30
2014,02,19,03,37,2.30
2014,02,19,03,38,2.40
2014,02,19,03,39,2.50
2014,02,19,03,40,2.50
2014,02,19,03,41,2.60
2014,02,19,03,42,2.70
2014,02,19,03,43,2.80
2014,02,19,03,44,2.80
2014,02,19,03,45,2.90
2014,02,19,03,46,2.90
2014,02,19,03,47,3.00
2014,02,19,03,48,3.00
2014,02,19,03,49,3.00
2014,02,19,03,50,3.00
2014,02,19,03,51,3.00
2014,02,19,03,52,3.00
2014,02,19,03,53,3.00
2014,02,19,03,54,3.00
2014,02,19,03,55,3.00
2014,02,19,03,56,3.00
2014,02,19,03,57,2.90
2014,02,19,03,58,2.80
2014,02,19,03,59,2.80
2014,02,19,04,00,2.70
2014,02,19,04,01,2.70
2014,02,19,04,02,2.70
2014,02,19,04,03,2.60
2014,02,19,04,04,2.60
2014,02,19,04,05,2.60
2014,02,19,04,06,2.50
2014,02,19,04,07,2.50
2014,02,19,04,08,2.40
2014,02,19,04,09,2.40
2014,02,19,04,10,2.40
2014,02,19,04,11,2.30
2014,02,19,04,12,2.30
2014,02,19,04,13,2.20
2014,02,19,04,14,2.20
2014,02,19,04,15,2.10
2014,02,19,04,16,2.00
2014,02,19,04,17,2.00
2014,02,19,04,18,1.90
2014,02,19,04,19,1.90
2014,02,19,04,20,1.90
2014,02,19,04,21,1.80
2014,02,19,04,22,1.80
2014,02,19,04,23,1.80
2014,02,19,04,24,1.80
2014,02,19,04,25,1.80
2014,02,19,04,26,1.70
2014,02,19,04,27,1.70
2014,02,19,04,28,1.70
2014,02,19,04,29,1.70
2014,02,19,04,30,1.70
2014,02,19,04,31,1.70
2014,02,19,04,32,1.60
2014,02,19,04,33,1.60
2014,02,19,04,34,1.60
2014,02,19,04,35,1.60
2014,02,19,04,36,1.50
2014,02,19,04,37,1.50
2014,02,19,04,38,1.60
2014,02,19,04,39,1.60
2014,02,19,04,40,1.60
2014,02,19,04,41,1.60
2014,02,19,04,42,1.70
2014,02,19,04,43,1.70
2014,02,19,04,44,1.70
2014,02,19,04,45,1.80
2014,02,19,04,46,1.80
2014,02,19,04,47,1.80
2014,02,19,04,48,1.80
2014,02,19,04,49,1.90
2014,02,19,04,50,1.90
2014,02,19,04,51,1.90
2014,02,19,04,52,1.90
2014,02,19,04,53,1.90
2014,02,19,04,54,1.90
2014,02,19,04,55,1.90
2014,02,19,04,56,1.90
2014,02,19,04,57,1.90
2014,02,19,04,58,1.90
2014,02,19,04,59,1.90
2014,02,19,05,00,1.90
2014,02,19,05,01,1.90
2014,02,19,05,02,1.90
2014,02,19,05,03,1.90
2014,02,19,05,04,1.90
2014,02,19,05,05,1.90
2014,02,19,05,06,2.00
2014,02,19,05,07,2.00
2014,02,19,05,08,2.00
2014,02,19,05,09,2.00
2014,02,19,05,10,2.00
2014,02,19,05,11,2.00
2014,02,19,05,12,2.00
2014,02,19,05,13,2.00
2014,02,19,05,14,1.90
2014,02,19,05,15,1.90
2014,02,19,05,16,1.90
2014,02,19,05,17,1.90
2014,02,19,05,18,1.80
2014,02,19,05,19,1.80
2014,02,19,05,20,1.80
2014,02,19,05,21,1.70
2014,02,19,05,22,1.70
2014,02,19,05,23,1.70
2014,02,19,05,24,1.70
2014,02,19,05,25,1.70
2014,02,19,05,26,1.70
2014,02,19,05,27,1.70
2014,02,19,05,28,1.70
2014,02,19,05,29,1.80
2014,02,19,05,30,1.80
2014,02,19,05,31,1.80
2014,02,19,05,32,1.90
2014,02,19,05,33,2.00
2014,02,19,05,34,2.10
2014,02,19,05,35,2.10
2014,02,19,05,36,2.20
2014,02,19,05,37,2.20
2014,02,19,05,38,2.30
2014,02,19,05,39,2.30
2014,02,19,05,40,2.40
2014,02,19,05,41,2.40
2014,02,19,05,42,2.40
2014,02,19,05,43,2.40
2014,02,19,05,44,2.40
2014,02,19,05,45,2.40
2014,02,19,05,46,2.30
2014,02,19,05,47,2.30
2014,02,19,05,48,2.30
2014,02,19,05,49,2.30
2014,02,19,05,50,2.20
2014,02,19,05,51,2.20
2014,02,19,05,52,2.10
2014,02,19,05,53,2.10
2014,02,19,05,54,2.00
2014,02,19,05,55,1.90
2014,02,19,05,56,1.90
2014,02,19,05,57,1.90
2014,02,19,05,58,1.90
2014,02,19,05,59,1.90
2014,02,19,06,00,1.80
2014,02,19,06,01,1.80
2014,02,19,06,02,1.80
2014,02,19,06,03,1.80
2014,02,19,06,04,1.80
2014,02,19,06,05,1.80
2014,02,19,06,06,1.80
2014,02,19,06,07,1.80
2014,02,19,06,08,1.80
2014,02,19,06,09,1.70
2014,02,19,06,10,1.70
2014,02,19,06,11,1.70
2014,02,19,06,12,1.70
2014,02,19,06,13,1.70
2014,02,19,06,14,1.70
2014,02,19,06,15,1.70
2014,02,19,06,16,1.70
2014,02,19,06,17,1.70
2014,02,19,06,18,1.70
2014,02,19,06,19,1.70
2014,02,19,06,20,1.70
2014,02,19,06,21,1.80
2014,02,19,06,22,1.90
2014,02,19,06,23,2.00
2014,02,19,06,24,2.10
2014,02,19,06,25,2.10
2014,02,19,06,26,2.10
2014,02,19,06,27,2.10
2014,02,19,06,28,2.20
2014,02,19,06,29,2.20
2014,02,19,06,30,2.20
2014,02,19,06,31,2.20
2014,02,19,06,32,2.20
2014,02,19,06,33,2.20
2014,02,19,06,34,2.20
2014,02,19,06,35,2.20
2014,02,19,06,36,2.30
2014,02,19,06,37,2.30
2014,02,19,06,38,2.30
2014,02,19,06,39,2.30
2014,02,19,06,40,2.30
2014,02,19,06,41,2.30
2014,02,19,06,42,2.30
2014,02,19,06,43,2.30
2014,02,19,06,44,2.30
2014,02,19,06,45,2.30
2014,02,19,06,46,2.30
2014,02,19,06,47,2.40
2014,02,19,06,48,2.40
2014,02,19,06,49,2.40
2014,02,19,06,50,2.50
2014,02,19,06,51,2.40
2014,02,19,06,52,2.40
2014,02,19,06,53,2.40
2014,02,19,06,54,2.40
2014,02,19,06,55,2.40
2014,02,19,06,56,2.40
2014,02,19,06,57,2.30
2014,02,19,06,58,2.30
2014,02,19,06,59,2.30
2014,02,19,07,00,2.30
2014,02,19,07,01,2.30
2014,02,19,07,02,2.30
2014,02,19,07,03,2.20
2014,02,19,07,04,2.20
2014,02,19,07,05,2.20
2014,02,19,07,06,2.10
2014,02,19,07,07,2.10
2014,02,19,07,08,2.10
2014,02,19,07,09,2.10
2014,02,19,07,10,2.10
2014,02,19,07,11,2.00
2014,02,19,07,12,2.00
2014,02,19,07,13,2.00
2014,02,19,07,14,2.00
2014,02,19,07,15,1.90
2014,02,19,07,16,1.90
2014,02,19,07,17,1.90
2014,02,19,07,18,1.80
2014,02,19,07,19,1.80
2014,02,19,07,20,1.80
2014,02,19,07,21,1.80
2014,02,19,07,22,1.70
2014,02,19,07,23,1.70
2014,02,19,07,24,1.70
2014,02,19,07,25,1.70
2014,02,19,07,26,1.70
2014,02,19,07,27,1.60
2014,02,19,07,28,1.60
2014,02,19,07,29,1.70
2014,02,19,07,30,1.80
2014,02,19,07,31,1.90
2014,02,19,07,32,2.00
2014,02,19,07,33,2.10
2014,02,19,07,34,2.20
2014,02,19,07,35,2.30
2014,02,19,07,36,2.30
2014,02,19,07,37,2.30
2014,02,19,07,38,2.40
2014,02,19,07,39,2.40
2014,02,19,07,40,2.40
2014,02,19,07,41,2.50
2014,02,19,07,42,2.50
2014,02,19,07,43,2.50
2014,02,19,07,44,2.60
2014,02,19,07,45,2.60
2014,02,19,07,46,2.60
2014,02,19,07,47,2.60
2014,02,19,07,48,2.60
2014,02,19,07,49,2.60
2014,02,19,07,50,2.60
2014,02,19,07,51,2.60
2014,02,19,07,52,2.60
2014,02,19,07,53,2.60
2014,02,19,07,54,2.60
2014,02,19,07,55,2.70
2014,02,19,07,56,2.70
2014,02,19,07,57,2.70
2014,02,19,07,58,2.80
2014,02,19,07,59,2.80
2014,02,19,08,00,2.80
2014,02,19,08,01,2.80
2014,02,19,08,02,2.80
2014,02,19,08,03,2.90
2014,02,19,08,04,2.90
2014,02,19,08,05,3.00
2014,02,19,08,06,3.10
2014,02,19,08,07,3.10
2014,02,19,08,08,3.20
2014,02,19,08,09,3.20
2014,02,19,08,10,3.30
2014,02,19,08,11,3.30
2014,02,19,08,12,3.40
2014,02,19,08,13,3.50
2014,02,19,08,14,3.50
2014,02,19,08,15,3.50
2014,02,19,08,16,3.60
2014,02,19,08,17,3.60
2014,02,19,08,18,3.60
2014,02,19,08,19,3.60
2014,02,19,08,20,3.50
2014,02,19,08,21,3.50
2014,02,19,08,22,3.50
2014,02,19,08,23,3.50
2014,02,19,08,24,3.50
2014,02,19,08,25,3.50
2014,02,19,08,26,3.50
2014,02,19,08,27,3.50
2014,02,19,08,28,3.50
2014,02,19,08,29,3.50
2014,02,19,08,30,3.50
2014,02,19,08,31,3.50
2014,02,19,08,32,3.50
2014,02,19,08,33,3.50
2014,02,19,08,34,3.50
2014,02,19,08,35,3.50
2014,02,19,08,36,3.50
2014,02,19,08,37,3.60
2014,02,19,08,38,3.60
2014,02,19,08,39,3.70
2014,02,19,08,40,3.70
2014,02,19,08,41,3.80
2014,02,19,08,42,3.90
2014,02,19,08,43,4.00
2014,02,19,08,44,4.00
2014,02,19,08,45,4.10
2014,02,19,08,46,4.20
2014,02,19,08,47,4.20
2014,02,19,08,48,4.30
2014,02,19,08,49,4.40
2014,02,19,08,50,4.40
2014,02,19,08,51,4.50
2014,02,19,08,52,4.50
2014,02,19,08,53,4.60
2014,02,19,08,54,4.60
2014,02,19,08,55,4.70
2014,02,19,08,56,4.70
2014,02,19,08,57,4.70
2014,02,19,08,58,4.70
2014,02,19,08,59,4.70
2014,02,19,09,00,4.70
2014,02,19,09,01,4.70
2014,02,19,09,02,4.70
2014,02,19,09,03,4.70
2014,02,19,09,04,4.60
2014,02,19,09,05,4.60
2014,02,19,09,06,4.60
2014,02,19,09,07,4.60
2014,02,19,09,08,4.50
2014,02,19,09,09,4.50
2014,02,19,09,10,4.40
2014,02,19,09,11,4.40
2014,02,19,09,12,4.40
2014,02,19,09,13,4.40
2014,02,19,09,14,4.30
2014,02,19,09,15,4.30
2014,02,19,09,16,4.30
2014,02,19,09,17,4.30
2014,02,19,09,18,4.30
2014,02,19,09,19,4.40
2014,02,19,09,20,4.40
2014,02,19,09,21,4.40
2014,02,19,09,22,4.40
2014,02,19,09,23,4.50
2014,02,19,09,24,4.50
2014,02,19,09,25,4.50
2014,02,19,09,26,4.60
2014,02,19,09,27,4.60
2014,02,19,09,28,4.60
2014,02,19,09,29,4.60
2014,02,19,09,30,4.60
2014,02,19,09,31,4.70
2014,02,19,09,32,4.70
2014,02,19,09,33,4.70
2014,02,19,09,34,4.70
2014,02,19,09,35,4.80
2014,02,19,09,36,4.80
2014,02,19,09,37,4.80
2014,02,19,09,38,4.80
2014,02,19,09,39,4.80
2014,02,19,09,40,4.80
2014,02,19,09,41,4.90
2014,02,19,09,42,4.90
2014,02,19,09,43,5.00
2014,02,19,09,44,5.00
2014,02,19,09,45,5.10
2014,02,19,09,46,5.10
2014,02,19,09,47,5.10
2014,02,19,09,48,5.20
2014,02,19,09,49,5.20
2014,02,19,09,50,5.30
2014,02,19,09,51,5.30
2014,02,19,09,52,5.30
2014,02,19,09,53,5.40
2014,02,19,09,54,5.40
2014,02,19,09,55,5.40
2014,02,19,09,56,5.50
2014,02,19,09,57,5.60
2014,02,19,09,58,5.60
2014,02,19,09,59,5.70
2014,02,19,10,00,5.70
2014,02,19,10,01,5.80
2014,02,19,10,02,5.80
2014,02,19,10,03,5.80
2014,02,19,10,04,5.90
2014,02,19,10,05,5.90
2014,02,19,10,06,5.90
2014,02,19,10,07,5.90
2014,02,19,10,08,5.90
2014,02,19,10,09,5.90
2014,02,19,10,10,5.90
2014,02,19,10,11,5.90
2014,02,19,10,12,5.90
2014,02,19,10,13,6.00
2014,02,19,10,14,6.00
2014,02,19,10,15,6.10
2014,02,19,10,16,6.10
2014,02,19,10,17,6.10
2014,02,19,10,18,6.20
2014,02,19,10,19,6.20
2014,02,19,10,20,6.20
2014,02,19,10,21,6.20
2014,02,19,10,22,6.20
2014,02,19,10,23,6.20
2014,02,19,10,24,6.30
2014,02,19,10,25,6.30
2014,02,19,10,26,6.40
2014,02,19,10,27,6.40
2014,02,19,10,28,6.50
2014,02,19,10,29,6.50
2014,02,19,10,30,6.60
2014,02,19,10,31,6.60
2014,02,19,10,32,6.60
2014,02,19,10,33,6.70
2014,02,19,10,34,6.70
2014,02,19,10,35,6.70
2014,02,19,10,36,6.70
2014,02,19,10,37,6.70
2014,02,19,10,38,6.80
2014,02,19,10,39,6.80
2014,02,19,10,40,6.80
2014,02,19,10,41,6.80
2014,02,19,10,42,6.80
2014,02,19,10,43,6.80
2014,02,19,10,44,6.80
2014,02,19,10,45,6.80
2014,02,19,10,46,6.90
2014,02,19,10,47,6.90
2014,02,19,10,48,6.90
2014,02,19,10,49,6.90
2014,02,19,10,50,6.90
2014,02,19,10,51,6.90
2014,02,19,10,52,6.80
2014,02,19,10,53,6.80
2014,02,19,10,54,6.70
2014,02,19,10,55,6.60
2014,02,19,10,56,6.60
2014,02,19,10,57,6.60
2014,02,19,10,58,6.60
2014,02,19,10,59,6.60
2014,02,19,11,00,6.60
2014,02,19,11,01,6.60
2014,02,19,11,02,6.60
2014,02,19,11,03,6.70
2014,02,19,11,04,6.70
2014,02,19,11,05,6.70
2014,02,19,11,06,6.80
2014,02,19,11,07,6.80
2014,02,19,11,08,6.80
2014,02,19,11,09,6.80
2014,02,19,11,10,6.80
2014,02,19,11,11,6.80
2014,02,19,11,12,6.80
2014,02,19,11,13,6.80
2014,02,19,11,14,6.80
2014,02,19,11,15,6.80
2014,02,19,11,16,6.80
2014,02,19,11,17,6.90
2014,02,19,11,18,6.90
2014,02,19,11,19,7.00
2014,02,19,11,20,7.00
2014,02,19,11,21,7.10
2014,02,19,11,22,7.20
2014,02,19,11,23,7.20
2014,02,19,11,24,7.30
2014,02,19,11,25,7.30
2014,02,19,11,26,7.30
2014,02,19,11,27,7.40
2014,02,19,11,28,7.30
2014,02,19,11,29,7.30
2014,02,19,11,30,7.30
2014,02,19,11,31,7.30
2014,02,19,11,32,7.30
2014,02,19,11,33,7.30
2014,02,19,11,34,7.30
2014,02,19,11,35,7.30
2014,02,19,11,36,7.30
2014,02,19,11,37,7.20
2014,02,19,11,38,7.20
2014,02,19,11,39,7.20
2014,02,19,11,40,7.20
2014,02,19,11,41,7.20
2014,02,19,11,42,7.20
2014,02,19,11,43,7.20
2014,02,19,11,44,7.30
2014,02,19,11,45,7.30
2014,02,19,11,46,7.30
2014,02,19,11,47,7.30
2014,02,19,11,48,7.40
2014,02,19,11,49,7.50
2014,02,19,11,50,7.50
2014,02,19,11,51,7.50
2014,02,19,11,52,7.50
2014,02,19,11,53,7.50
2014,02,19,11,54,7.50
2014,02,19,11,55,7.60
2014,02,19,11,56,7.60
2014,02,19,11,57,7.60
2014,02,19,11,58,7.60
2014,02,19,11,59,7.60
2014,02,19,12,00,7.60
2014,02,19,12,01,7.60
2014,02,19,12,02,7.60
2014,02,19,12,03,7.50
2014,02,19,12,04,7.50
2014,02,19,12,05,7.50
2014,02,19,12,06,7.50
2014,02,19,12,07,7.60
2014,02,19,12,08,7.50
2014,02,19,12,09,7.50
2014,02,19,12,10,7.40
2014,02,19,12,11,7.50
2014,02,19,12,12,7.50
2014,02,19,12,13,7.60
2014,02,19,12,14,7.60
2014,02,19,12,15,7.60
2014,02,19,12,16,7.70
2014,02,19,12,17,7.70
2014,02,19,12,18,7.70
2014,02,19,12,19,7.80
2014,02,19,12,20,7.80
2014,02,19,12,21,7.90
2014,02,19,12,22,8.00
2014,02,19,12,23,8.10
2014,02,19,12,24,8.10
2014,02,19,12,25,8.20
2014,02,19,12,26,8.20
2014,02,19,12,27,8.20
2014,02,19,12,28,8.20
2014,02,19,12,29,8.20
2014,02,19,12,30,8.20
2014,02,19,12,31,8.20
2014,02,19,12,32,8.20
2014,02,19,12,33,8.20
2014,02,19,12,34,8.20
2014,02,19,12,35,8.10
2014,02,19,12,36,8.00
2014,02,19,12,37,7.90
2014,02,19,12,38,7.90
2014,02,19,12,39,7.80
2014,02,19,12,40,7.70
2014,02,19,12,41,7.60
2014,02,19,12,42,7.50
2014,02,19,12,43,7.50
2014,02,19,12,44,7.40
2014,02,19,12,45,7.40
2014,02,19,12,46,7.40
2014,02,19,12,47,7.40
2014,02,19,12,48,7.40
2014,02,19,12,49,7.40
2014,02,19,12,50,7.30
2014,02,19,12,51,7.30
2014,02,19,12,52,7.30
2014,02,19,12,53,7.20
2014,02,19,12,54,7.20
2014,02,19,12,55,7.20
2014,02,19,12,56,7.20
2014,02,19,12,57,7.20
2014,02,19,12,58,7.30
2014,02,19,12,59,7.20
2014,02,19,13,00,7.20
2014,02,19,13,01,7.20
2014,02,19,13,02,7.20
2014,02,19,13,03,7.10
2014,02,19,13,04,7.10
2014,02,19,13,05,7.10
2014,02,19,13,06,7.10
2014,02,19,13,07,7.10
2014,02,19,13,08,7.00
2014,02,19,13,09,7.00
2014,02,19,13,10,7.10
2014,02,19,13,11,7.10
2014,02,19,13,12,7.10
2014,02,19,13,13,7.20
2014,02,19,13,14,7.20
2014,02,19,13,15,7.20
2014,02,19,13,16,7.30
2014,02,19,13,17,7.30
2014,02,19,13,18,7.30
2014,02,19,13,19,7.30
2014,02,19,13,20,7.30
2014,02,19,13,21,7.30
2014,02,19,13,22,7.30
2014,02,19,13,23,7.30
2014,02,19,13,24,7.20
2014,02,19,13,25,7.20
2014,02,19,13,26,7.20
2014,02,19,13,27,7.20
2014,02,19,13,28,7.20
2014,02,19,13,29,7.20
2014,02,19,13,30,7.20
2014,02,19,13,31,7.20
2014,02,19,13,32,7.20
2014,02,19,13,33,7.30
2014,02,19,13,34,7.30
2014,02,19,13,35,7.30
2014,02,19,13,36,7.30
2014,02,19,13,37,7.40
2014,02,19,13,38,7.40
2014,02,19,13,39,7.30
2014,02,19,13,40,7.30
2014,02,19,13,41,7.20
2014,02,19,13,42,7.20
2014,02,19,13,43,7.10
2014,02,19,13,44,7.10
2014,02,19,13,45,7.00
2014,02,19,13,46,7.00
2014,02,19,13,47,6.90
2014,02,19,13,48,6.90
2014,02,19,13,49,6.80
2014,02,19,13,50,6.70
2014,02,19,13,51,6.70
2014,02,19,13,52,6.60
2014,02,19,13,53,6.60
2014,02,19,13,54,6.60
2014,02,19,13,55,6.60
2014,02,19,13,56,6.50
2014,02,19,13,57,6.50
2014,02,19,13,58,6.50
2014,02,19,13,59,6.50
2014,02,19,14,00,6.60
2014,02,19,14,01,6.50
2014,02,19,14,02,6.40
2014,02,19,14,03,6.30
2014,02,19,14,04,6.30
2014,02,19,14,05,6.20
2014,02,19,14,06,6.20
2014,02,19,14,07,6.20
2014,02,19,14,08,6.20
2014,02,19,14,09,6.20
2014,02,19,14,10,6.20
2014,02,19,14,11,6.20
2014,02,19,14,12,6.20
2014,02,19,14,13,6.20
2014,02,19,14,14,6.20
2014,02,19,14,15,6.10
2014,02,19,14,16,6.10
2014,02,19,14,17,6.10
2014,02,19,14,18,6.20
2014,02,19,14,19,6.20
2014,02,19,14,20,6.20
2014,02,19,14,21,6.20
2014,02,19,14,22,6.20
2014,02,19,14,23,6.20
2014,02,19,14,24,6.20
2014,02,19,14,25,6.20
2014,02,19,14,26,6.20
2014,02,19,14,27,6.20
2014,02,19,14,28,6.20
2014,02,19,14,29,6.10
2014,02,19,14,30,6.10
2014,02,19,14,31,6.10
2014,02,19,14,32,6.00
2014,02,19,14,33,6.00
2014,02,19,14,34,6.00
2014,02,19,14,35,6.00
2014,02,19,14,36,6.00
2014,02,19,14,37,6.00
2014,02,19,14,38,6.10
2014,02,19,14,39,6.10
2014,02,19,14,40,6.10
2014,02,19,14,41,6.20
2014,02,19,14,42,6.20
2014,02,19,14,43,6.30
2014,02,19,14,44,6.30
2014,02,19,14,45,6.40
2014,02,19,14,46,6.50
2014,02,19,14,47,6.50
2014,02,19,14,48,6.60
2014,02,19,14,49,6.60
2014,02,19,14,50,6.60
2014,02,19,14,51,6.60
2014,02,19,14,52,6.70
2014,02,19,14,53,6.70
2014,02,19,14,54,6.70
2014,02,19,14,55,6.70
2014,02,19,14,56,6.70
2014,02,19,14,57,6.70
2014,02,19,14,58,6.70
2014,02,19,14,59,6.70
2014,02,19,15,00,6.70
2014,02,19,15,01,6.70
2014,02,19,15,02,6.70
2014,02,19,15,03,6.70
2014,02,19,15,04,6.70
2014,02,19,15,05,6.70
2014,02,19,15,06,6.70
2014,02,19,15,07,6.70
2014,02,19,15,08,6.70
2014,02,19,15,09,6.80
2014,02,19,15,10,6.80
2014,02,19,15,11,6.80
2014,02,19,15,12,6.80
2014,02,19,15,13,6.80
2014,02,19,15,14,6.90
2014,02,19,15,15,6.90
2014,02,19,15,16,6.90
2014,02,19,15,17,6.90
2014,02,19,15,18,6.90
2014,02,19,15,19,6.90
2014,02,19,15,20,6.90
2014,02,19,15,21,6.90
2014,02,19,15,22,6.90
2014,02,19,15,23,6.90
2014,02,19,15,24,6.90
2014,02,19,15,25,6.90
2014,02,19,15,26,7.00
2014,02,19,15,27,7.00
2014,02,19,15,28,7.00
2014,02,19,15,29,7.00
2014,02,19,15,30,7.00
2014,02,19,15,31,7.00
2014,02,19,15,32,7.00
2014,02,19,15,33,6.90
2014,02,19,15,34,6.90
2014,02,19,15,35,6.90
2014,02,19,15,36,6.90
2014,02,19,15,37,6.80
2014,02,19,15,38,6.80
2014,02,19,15,39,6.80
2014,02,19,15,40,6.80
2014,02,19,15,41,6.80
2014,02,19,15,42,6.80
2014,02,19,15,43,6.80
2014,02,19,15,44,6.70
2014,02,19,15,45,6.70
2014,02,19,15,46,6.70
2014,02,19,15,47,6.70
2014,02,19,15,48,6.60
2014,02,19,15,49,6.60
2014,02,19,15,50,6.60
2014,02,19,15,51,6.60
2014,02,19,15,52,6.50
2014,02,19,15,53,6.50
2014,02,19,15,54,6.50
2014,02,19,15,55,6.40
2014,02,19,15,56,6.40
2014,02,19,15,57,6.40
2014,02,19,15,58,6.40
2014,02,19,15,59,6.40
2014,02,19,16,00,6.30
2014,02,19,16,01,6.30
2014,02,19,16,02,6.30
2014,02,19,16,03,6.30
2014,02,19,16,04,6.20
2014,02,19,16,05,6.20
2014,02,19,16,06,6.20
2014,02,19,16,07,6.20
2014,02,19,16,08,6.20
2014,02,19,16,09,6.10
2014,02,19,16,10,6.10
2014,02,19,16,11,6.10
2014,02,19,16,12,6.10
2014,02,19,16,13,6.10
2014,02,19,16,14,6.10
2014,02,19,16,15,6.10
2014,02,19,16,16,6.10
2014,02,19,16,17,6.10
2014,02,19,16,18,6.10
2014,02,19,16,19,6.10
2014,02,19,16,20,6.10
2014,02,19,16,21,6.10
2014,02,19,16,22,6.10
2014,02,19,16,23,6.10
2014,02,19,16,24,6.10
2014,02,19,16,25,6.10
2014,02,19,16,26,6.10
2014,02,19,16,27,6.10
2014,02,19,16,28,6.10
2014,02,19,16,29,6.10
2014,02,19,16,30,6.10
2014,02,19,16,31,6.10
2014,02,19,16,32,6.10
2014,02,19,16,33,6.10
2014,02,19,16,34,6.10
2014,02,19,16,35,6.00
2014,02,19,16,36,6.00
2014,02,19,16,37,6.00
2014,02,19,16,38,6.00
2014,02,19,16,39,6.00
2014,02,19,16,40,6.00
2014,02,19,16,41,6.00
2014,02,19,16,42,6.00
2014,02,19,16,43,5.90
2014,02,19,16,44,5.90
2014,02,19,16,45,5.90
2014,02,19,16,46,5.90
2014,02,19,16,47,5.90
2014,02,19,16,48,5.90
2014,02,19,16,49,5.90
2014,02,19,16,50,5.90
2014,02,19,16,51,5.90
2014,02,19,16,52,5.90
2014,02,19,16,53,5.90
2014,02,19,16,54,5.80
2014,02,19,16,55,5.80
2014,02,19,16,56,5.80
2014,02,19,16,57,5.80
2014,02,19,16,58,5.80
2014,02,19,16,59,5.80
2014,02,19,17,00,5.80
2014,02,19,17,01,5.80
2014,02,19,17,02,5.80
2014,02,19,17,03,5.70
2014,02,19,17,04,5.70
2014,02,19,17,05,5.70
2014,02,19,17,06,5.70
2014,02,19,17,07,5.70
2014,02,19,17,08,5.70
2014,02,19,17,09,5.70
2014,02,19,17,10,5.70
2014,02,19,17,11,5.70
2014,02,19,17,12,5.70
2014,02,19,17,13,5.60
2014,02,19,17,14,5.60
2014,02,19,17,15,5.60
2014,02,19,17,16,5.60
2014,02,19,17,17,5.60
2014,02,19,17,18,5.60
2014,02,19,17,19,5.60
2014,02,19,17,20,5.60
2014,02,19,17,21,5.60
2014,02,19,17,22,5.60
2014,02,19,17,23,5.50
2014,02,19,17,24,5.50
2014,02,19,17,25,5.50
2014,02,19,17,26,5.50
2014,02,19,17,27,5.50
2014,02,19,17,28,5.50
2014,02,19,17,29,5.40
2014,02,19,17,30,5.40
2014,02,19,17,31,5.40
2014,02,19,17,32,5.40
2014,02,19,17,33,5.40
2014,02,19,17,34,5.40
2014,02,19,17,35,5.40
2014,02,19,17,36,5.40
2014,02,19,17,37,5.40
2014,02,19,17,38,5.30
2014,02,19,17,39,5.30
2014,02,19,17,40,5.30
2014,02,19,17,41,5.30
2014,02,19,17,42,5.30
2014,02,19,17,43,5.30
2014,02,19,17,44,5.30
2014,02,19,17,45,5.30
2014,02,19,17,46,5.30
2014,02,19,17,47,5.20
2014,02,19,17,48,5.20
2014,02,19,17,49,5.20
2014,02,19,17,50,5.20
2014,02,19,17,51,5.20
2014,02,19,17,52,5.20
2014,02,19,17,53,5.20
2014,02,19,17,54,5.20
2014,02,19,17,55,5.20
2014,02,19,17,56,5.10
2014,02,19,17,57,5.10
2014,02,19,17,58,5.10
2014,02,19,17,59,5.20
2014,02,19,18,00,5.20
2014,02,19,18,01,5.20
2014,02,19,18,02,5.20
2014,02,19,18,03,5.20
2014,02,19,18,04,5.10
2014,02,19,18,05,5.10
2014,02,19,18,06,5.10